Location: Haieshausen
(51.8387°N, 9.9720°E)
Time: 04:26:20
(UTC+00:00)

Cosmos 1356 - Pass Details

Date: 14 July 2020
Orbit: 443 x 447 km, 81.1° (Epoch: 10 August)

Event Time Altitude Azimuth Distance (km) Brightness Sun altitude
Exits shadow 02:04:44 - 184° (S) 1,709 5.8 -8.8°
Reaches altitude 10° 02:05:04 10° 183° (S) 1,574 5.7 -8.7°
Maximum altitude 02:08:29 69° 100° (E) 486 3.7 -8.4°
Drops below altitude 10° 02:11:55 10° 17° (NNE) 1,586 7.5 -8.1°
Sets 02:14:00 0° 15° (NNE) 2,462 8.6 -7.9°
